SL-14 DEB, 45307

Orbit data source: Space-Track

SL-14 DEB, 45307 is space debris in LEO originally from a launch on Thu, 15 Aug 1991 UTC launched from the Plesetsk Missile And Space Complex (PKMTR). Debris objects in space refer to the collection of defunct objects orbiting the Earth. Examples of debris include non-operational satellites, rocket bodies, and fragments generated from explosions, collisions, or faulty payload assembly.

Loading next visibility...
Identifier
45307, 1991-056AV
Orbit
LEO
Country
Flag of CISCIS
Related business
Manufacturer
Unknown
Mission
Spacecraft
Bus & Motor
Unknown
Mass
Unknown
Launch date (UTC)
1991-08-15 (35 years ago)
Launch vehicle
Unknown
Launch site
Plesetsk Missile And Space Complex (PKMTR)
Object type
Payload
Rocket body
Debris
Shape & HBR
Unknown shape, 0.1 m
Radar Cross Section
Small (<0.1 m²)

Expand to show TLE details & history
Last TLE update: 8 hours ago

TLE from 8 hours ago
0 SL-14 DEB
1 45307U 91056AV  26062.59318207  .00006149  00000-0  17462-1 0  9992
2 45307  82.5876 277.3155 0183269  41.3216 320.1600 13.05208250284702
Epoch: 2026-03-03T14:14Z
TLE epoch observation values (Epoch: 2026-03-03T14:14:10.930Z)
Latitude
-0.00011°
Longitude
-97.60007°
Altitude
1,138.369 km
Speed
7.334 km/s
True Right ascension
18h 29m 15s
True Declination
0° 00' 00"
Sunlit
Object was in daylight at epoch
Visualization orbit readout
Latitude
Unknown
Longitude
Unknown
Altitude
Unknown
Speed
Unknown
Apparent Right ascension
Unknown
Apparent Declination
Unknown
Sunlit
N/A
Visualization observer readout
Local Sidereal Time
02:16:34
Azimuth
Unknown
Elevation
Unknown
Doppler factor
Unknown
Orbital elements
Apogee altitude
1,378.609 km
Perigee altitude
1,099.412 km
Semi-major axis
7,617.147 km
Eccentricity
0.01833
Inclination
82.5876°
RAAN
277.3155°
Arg. of periapsis
41.3216°
True anomaly
318.79063°
Mean anomaly
320.16°
Eccentric anomaly
319.47773°
Mean motion
3.26479 °/min
Orbital period
110.27 mins
BSTAR
0.017462
Loading maneuver chart data...
Computing Atmospheric mass density...
Loading historical data...
Loading historical data...
Loading historical data...
Loading historical data...
Loading historical data...
Loading historical data...
Loading historical data...

Documentation

Showing up to 5 results
|